Pagina principale
METAR-TAF:

METAR-TAF

Aeroporti :

Castrignano del Capo, Italia

Santa Maria di Leuca

latitudine: 39-49N, longitudine: 018-21E, altezza: 104 m

Osservazione

Il bollettino è stato emesso 1 ora e 0 minuti fa, alle 23:55 UTC
Vento 7 kt da sud-ovest
Temperature 13°C
Umidità 82%
Pressione 1013 hPa
Visibilità 10 km o più
nessuna nube inferiore a 1500 m e nessun cumulonembo

METAR: LIBY 162355Z 22007KT CAVOK 13/10 Q1013 RMK FEW FEW080 QUK / QUL / VIS MAR 12 KM VIS MIN 9999

Ora: 01:55 (00:55 UTC)


TAF: mancante

Osservazioni e previsioni meteorologiche di più di 4000 aeroporti (messaggi METAR e TAF).

Le stazioni disponibili sono rappresentate dai dischi gialli e rossi sulla carta.

Puntare il mouse per vedere il nome della stazione.

Clicca sopra per visualizzare le osservazioni e previsioni meteorologiche.

Per cambiare la mappa : fare clic sui pulsanti verdi con una croce nera per ingrandire, il pulsante verde con un trattino per diminuire, o sulla freccia verde per le mappe adiacenti.


METAR-TAF: